www.pogodaiklimat.ru
Время
и дата
10:53 30.12
11:53 30.12
12:53 30.12
13:53 30.12
14:53 30.12
15:44 30.12
15:53 30.12
16:53 30.12
17:53 30.12
18:53 30.12
19:53 30.12
20:27 30.12
20:53 30.12
21:42 30.12
21:53 30.12
22:35 30.12
22:53 30.12
23:14 30.12
23:53 30.12
00:21 31.12
00:53 31.12
01:11 31.12
01:53 31.12
02:53 31.12
03:51 31.12
03:53 31.12
04:31 31.12
04:53 31.12
05:53 31.12
06:41 31.12
06:53 31.12
07:03 31.12
07:30 31.12
07:53 31.12
08:37 31.12
08:53 31.12
09:53 31.12
10:01 31.12
10:53 31.12
11:01 31.12
11:53 31.12
12:53 31.12
13:53 31.12
14:53 31.12
15:30 31.12
15:53 31.12
16:53 31.12
17:08 31.01
Ветер
(напр.,м/с)
Видим. Явления Облачность Т
(С)
Тd
(С)
f
(%)
Тe
(С)
Тes
(С)
Комфортность P
(гПа)
Po
(гПа)
Тmin
(С)
Tmax
(С)
R
(мм)
R24
(мм)
S
(см)
З 2 16 км 2/2 660 м +23.9 +20.0 79 +29 +32 душно 1014.3 1014.5
ЮЗ 2 16 км 2/2 1650 м +26.7 +21.1 71 +34 +38 очень
душно
1013.3 1013.5 +22.2 +27.2
ЮЗ 2 16 км 2/2 930 м +27.2 +20.6 67 +34 +37 очень
душно
1012.3 1012.9
ЮЗ 2 16 км 2/2 960 м +27.2 +20.0 65 +33 +36 очень
душно
1011.8 1012.2
СЗ 1 16 км 8/8 1140 м +26.1 +20.0 69 +32 +33 очень
душно
1011.6 1011.8
ЮЗ 3 16 км 2/2 1200 м +27.8 +19.4 60 +33 +34 очень
душно
1012.2
ЮЗ 3 16 км ясно +27.2 +19.4 62 +33 +34 очень
душно
1011.9 1012.2
Ю 2 16 км ясно +25.6 +19.4 69 +31 +32 очень
душно
1012.0 1012.2
Ю 1 16 км ясно +24.4 +20.0 76 +30 +30 очень
душно
1012.3 1012.5 +24.4 +28.3
Ю 2 16 км ясно +23.9 +20.0 79 +29 +29 душно 1012.8 1013.2
Ю 2 16 км ясно +23.3 +20.0 82 +30 +30 очень
душно
1013.2 1013.5
Ю 1 16 км 8/8 660 м +23.3 +20.6 85 +31 +31 очень
душно
1013.9
Ю 1 16 км 8/8 510 м +23.3 +21.1 87 +31 +31 очень
душно
1013.4 1013.9
Ю 1 14 км 10/10 390 м +23.3 +21.1 87 +31 +31 очень
душно
1013.9
Ю 1 13 км 10/10 330 м +23.3 +21.7 91 +32 +32 очень
душно
1013.3 1013.5
Ю 2 13 км 10/10 240 м +23.3 +22.2 94 +32 +32 очень
душно
1013.5
Ю 1 13 км 10/10 270 м +23.3 +21.7 91 +32 +32 очень
душно
1013.4 1013.9
Ю 1 16 км 10/10 300 м +23.9 +22.2 90 +31 +31 очень
душно
1013.5
Ю 2 16 км 10/10 330 м +23.9 +21.7 88 +31 +31 очень
душно
1013.1 1013.5 +22.8 +24.4
Ю 3 16 км 10/10 330 м +23.3 +21.7 91 +32 +32 очень
душно
1013.2
ЮЗ 3 16 км 10/10 330 м +23.9 +21.7 88 +31 +31 очень
душно
1012.9 1013.2
ЮЗ 3 16 км 10/10 330 м +23.9 +21.7 88 +31 +31 очень
душно
1013.2
Ю 3 16 км 10/10 360 м +23.9 +21.7 88 +31 +31 очень
душно
1012.8 1013.2
ЮЗ 2 16 км 10/10 360 м +23.3 +21.1 87 +31 +31 очень
душно
1012.6 1012.9
Ю 3 16 км 10/10 360 м +24.0 +21.0 83 +30 +30 очень
душно
1012.5
Ю 3 16 км 10/10 360 м +23.9 +21.1 84 +30 +30 очень
душно
1012.3 1012.9
Ю 3 16 км 8/8 360 м +23.3 +21.1 87 +31 +31 очень
душно
1012.9
ЮЗ 2 16 км 8/8 360 м +23.3 +21.1 87 +31 +31 очень
душно
1012.5 1012.9
ЮЗ 2 16 км 10/10 420 м +23.3 +21.1 87 +31 +31 очень
душно
1012.9 1013.2 +23.3 +23.9
Ю 3 16 км 8/8 330 м +23.3 +21.1 87 +31 +31 очень
душно
1013.5
Ю 2 16 км 8/8 390 м +23.3 +21.1 87 +31 +31 очень
душно
1013.4 1013.9
ЮЗ 2 16 км 8/8 420 м +23.3 +21.1 87 +31 +31 очень
душно
1013.9
Ю 2 16 км 8/8 360 м +23.3 +21.1 87 +31 +31 очень
душно
1013.9
Ю 2 16 км 8/8 360 м +23.3 +21.1 87 +31 +31 очень
душно
1014.0 1014.2
ЮЗ 2 16 км 8/8 360 м +23.9 +21.7 88 +31 +31 очень
душно
1014.9
ЮЗ 2 16 км 8/8 360 м +24.4 +21.7 85 +31 +31 очень
душно
1014.7 1015.2
ЮЗ 2 8 км слабый дождь, дымка 10/10 390 м +23.9 +21.7 88 +31 +31 очень
душно
1014.9 1015.2
ЮЗ 2 11 км слабый дождь 10/10 450 м +23.9 +21.7 88 +31 +31 очень
душно
1015.2
ЮЗ 2 16 км слабый дождь 8/8 540 м +24.4 +21.7 85 +31 +32 очень
душно
1014.4 1014.9
ЮЗ 2 16 км 5/5 540 м +23.9 +21.7 88 +31 +33 очень
душно
1014.5
ЮЗ 3 16 км 2/2 1350 м +25.6 +21.1 76 +32 +35 очень
душно
1013.4 1013.9 +22.8 +25.6 0.5
ЮЗ 4
{5}
16 км ясно +27.8 +20.6 65 +35 +35 очень
душно
1012.4 1012.9
ЮЗ 3
{5}
16 км 2/2 990 м +27.8 +20.6 65 +35 +36 очень
душно
1011.6 1011.8
Ю 4 16 км 5/5 870 м +27.8 +21.1 67 +35 +36 очень
душно
1011.3 1011.8
Ю 4 16 км 8/8 780 м +27.2 +21.1 69 +34 +34 очень
душно
1011.5
Ю 4
{6}
16 км 5/5 780 м +27.2 +21.1 69 +34 +34 очень
душно
1011.3 1011.5
ЮЗ 3 16 км 8/8 600 м +25.6 +21.7 79 +33 +33 очень
душно
1011.4 1011.8
Ю 4 16 км 5/5 570 м +25.6 +21.7 79 +33 +33 очень
душно
1011.8
Местоположение метеостанции New Orleans Lakefront Airport: широта 30.0494 долгота -90.0289 высота над уровнем моря 2 м.
В архиве по умолчанию представлена погода в Новом Орлеане за последние 1-2 суток. Обновление информации о фактической погоде в базе происходит ежечасно! Архивные данные за месяц целиком и за предыдущие месяцы Вы можете получить, выбрав интересующий диапазон дат из раскрывающегося списка и нажав кнопку "Ввод!".
Внимание! Архив погоды МЕТАР в базе сайта по станциям, не включенным в климатический монитор, хранится не более 60 дней. Нет смысла пытаться выбрать более раннюю дату.
*Определитесь, кто Вы:
Внимание! Время в таблицах - местное (без учета летнего времени). Для получения всемирного времени необходимо вычесть поправку, которая равна -6 ч.
Смотрите также архив погоды в соседних городах и на ближайших метеорологических станциях:
Партнеры нашего сайта:      
Пояснения к столбцам:
  • Ветер - указаны скорость ветра в м/с - средняя за 10 мин, порывы в срок и между сроками (в фигурных скобках) и направление, откуда дует ветер: С - северный,
  • СВ - северо-восточный, В - восточный, ЮВ - юго-восточный, Ю - южный, ЮЗ - юго-западный, З - западный, СЗ - северо-западный.
  • Видимость - горизонтальная дальность видимости в метрах или километрах. При видимости от 1 до 10 км при отсутствии осадков обычно наблюдается дымка, при ухудшении видимости до 1 км и менее - туман. В сухую погоду видимость может ухудшаться дымом, пылью или мглою.
  • Явления - указаны атмосферные явления, наблюдавшиеся в срок или в последний час перед сроком; фигурными скобками обозначены явления, наблюдавшиеся между сроками (за 1-3 часа до срока); квадратными скобками обозначены град или гололедные отложения с указанием их диаметра в мм.
  • Облачность - указаны через наклонную черту общая и нижняя облачность в баллах и высота нижней границы облаков в метрах; квадратными скобками обозначены формы облаков: Ci - перистые, Cs - перисто-слоистые, Cc - перисто-кучевые, Ac - высококучевые, As - высокослоистые, Sc - слоисто-кучевые, Ns - слоисто-дождевые, Cu - кучевые, Cb - кучево-дождевые. Подробнее классификацию облаков см. в Атласе облаков (PDF).
  • T - Температура воздуха - температура, измеренная на высоте 2 м над землей.
  • Td - Температура точки росы - температура, при понижении до которой содержащийся в воздухе водяной пар достигнет насыщения.
  • f - Относительная влажность воздуха - влажноcть воздуха, измеренная на высоте 2 м над землей.
  • Te - Эффективная температура - температура, которую ощущает одетый по сезону человек в тени. Характеристика душности погоды. При расчете учитывается влияние влажности воздуха и скорости ветра на теплоощущения человека.
  • Tes - Эффективная температура на солнце - температура, которую ощущает человек, с поправкой на солнечный нагрев. Характеристика знойности погоды. Зависит от высоты солнца над горизонтом, облачности и скорости ветра. Ночью, в пасмурную погоду, а также при ветре 12 м/с и более поправка равна нулю.
  • P - Атмосферное давление - приведенное к уровню моря атмосферное давление.
  • Po - Атмосферное давление - измеренное на уровне метеостанции атмосферное давление.
  • Tmin - Минимальная температура - минимум температуры воздуха на высоте 2 м над землей.
  • Tmax - Максимальная температура - максимум температуры воздуха на высоте 2 м над землей.
  • R - Количество осадков - Количество выпавших осадков за период времени, мм. При наведении курсора мыши на число - период времени, за который выпало указанное количество осадков.
  • R24 - Количество осадков - Количество выпавших осадков за 24 часа, мм.
  • S - Снежный покров - Высота снежного покрова, см. При наведении курсора мыши на число - состояние снежного покрова и степень покрытия местности в баллах.